📊 Raw Sensor Data
Showing records 38651 to 38675 of 84,933 total
| ID | Distance (ft) | Battery V | Battery A | Int Temp (°F) | Int Humid (%) | Ext Temp (°F) | Solar V | RSSI | SNR | Time Stamp |
|---|---|---|---|---|---|---|---|---|---|---|
| 46295 | 15.5 | 4.02 | 0 | 108 | 47 | 101 | 5.10 | -72 | 8 | 07/14/2025 05:00 PM |
| 46294 | 15.5 | 4.02 | 0 | 108 | 47 | 97 | 5.10 | -72 | 8 | 07/14/2025 04:45 PM |
| 46293 | 15.5 | 4.02 | 0 | 108 | 46 | 99 | 5.10 | -72 | 6 | 07/14/2025 04:30 PM |
| 46292 | 15.6 | 4.14 | 0 | 108 | 45 | 101 | 5.10 | -72 | 7 | 07/14/2025 04:15 PM |
| 46291 | 15.5 | 4.13 | 0 | 108 | 45 | 97 | 5.10 | -71 | 7 | 07/14/2025 04:00 PM |
| 46290 | 15.5 | 4.02 | 0 | 108 | 45 | 100 | 5.10 | -72 | 8 | 07/14/2025 03:45 PM |
| 46289 | 15.5 | 4.02 | 0 | 107 | 44 | 98 | 5.10 | -72 | 8 | 07/14/2025 03:30 PM |
| 46288 | 15.5 | 4.03 | 0 | 106 | 42 | 96 | 5.20 | -71 | 8 | 07/14/2025 02:45 PM |
| 46287 | 15.5 | 4.02 | 0 | 105 | 42 | 98 | 5.10 | -71 | 7 | 07/14/2025 02:30 PM |
| 46286 | 15.5 | 4.05 | 0 | 104 | 41 | 95 | 5.10 | -72 | 8 | 07/14/2025 02:15 PM |
| 46285 | 15.5 | 4.02 | 0 | 103 | 41 | 95 | 5.10 | -71 | 8 | 07/14/2025 02:00 PM |
| 46284 | 15.5 | 4.07 | 0 | 101 | 42 | 92 | 5.10 | -71 | 8 | 07/14/2025 01:45 PM |
| 46283 | 15.5 | 4.02 | 0 | 99 | 42 | 91 | 5.20 | -70 | 8 | 07/14/2025 01:30 PM |
| 46282 | 15.5 | 4.03 | 0 | 97 | 42 | 90 | 5.20 | -71 | 8 | 07/14/2025 01:15 PM |
| 46281 | 15.5 | 4.02 | 0 | 96 | 42 | 92 | 5.10 | -71 | 8 | 07/14/2025 01:00 PM |
| 46280 | 15.5 | 4.02 | 0 | 93 | 43 | 89 | 5.10 | -71 | 7 | 07/14/2025 12:45 PM |
| 46279 | 15.6 | 4.02 | 0 | 92 | 43 | 88 | 5.10 | -72 | 8 | 07/14/2025 12:30 PM |
| 46278 | 15.5 | 4.02 | 0 | 91 | 43 | 90 | 5.10 | -72 | 7 | 07/14/2025 12:15 PM |
| 46277 | 15.6 | 4.02 | 0 | 90 | 43 | 88 | 5.20 | -71 | 7 | 07/14/2025 12:00 PM |
| 46276 | 15.6 | 4.13 | 0 | 88 | 43 | 91 | 5.10 | -71 | 7 | 07/14/2025 11:45 AM |
| 46275 | 15.6 | 4.09 | 0 | 87 | 43 | 88 | 5.10 | -71 | 8 | 07/14/2025 11:30 AM |
| 46274 | 15.6 | 4.04 | 0 | 86 | 43 | 88 | 5.10 | -71 | 7 | 07/14/2025 11:15 AM |
| 46273 | 15.6 | 4.02 | 0 | 85 | 42 | 87 | 5.10 | -71 | 7 | 07/14/2025 11:00 AM |
| 46272 | 15.6 | 4.01 | 0 | 83 | 42 | 87 | 5.10 | -70 | 8 | 07/14/2025 10:45 AM |
| 46271 | 15.5 | 4.02 | 0 | 81 | 43 | 82 | 5.10 | -71 | 7 | 07/14/2025 10:30 AM |